When you browse on this site, cookies collect data to enhance your experience and personalize the content and advertising you see.
Visit our Privacy Policy to learn more. By continuing to use the site, you agree to this use of cookies and data.
  • In Germany
  • List of Countries
  • For 7 days
  • Water Temperature
  • Weather Map
  • Weather Widgets
  • user-avatar
    Login

    Hourly Weather Graz

    Today, 25 August, Sunday

    Time Temperature Precipitation Wind Pressure Humidity
    00:00 +18°C° 0.1 mm 0 mps 727 mmHg 90%
    01:00 +19°C° 0.1 mm 1 mps 727 mmHg 90%
    02:00 +19°C° 0.2 mm 1 mps 727 mmHg 90%
    03:00 +19°C° 0.2 mm 1 mps 727 mmHg 90%
    04:00 +19°C° 0.2 mm 1 mps 727 mmHg 90%
    05:00 +20°C° 0.3 mm 1 mps 727 mmHg 89%
    06:00 +20°C° 0.3 mm 1 mps 727 mmHg 89%
    07:00 +21°C° 0.3 mm 1 mps 727 mmHg 88%
    08:00 +23°C° 0.4 mm 1 mps 727 mmHg 83%
    09:00 +24°C° 0.4 mm 1 mps 728 mmHg 78%
    10:00 +26°C° 0.4 mm 1 mps 728 mmHg 73%
    11:00 +27°C° 1.1 mm 1 mps 728 mmHg 72%
    12:00 +27°C° 1.1 mm 1 mps 727 mmHg 71%
    13:00 +27°C° 1.1 mm 1 mps 727 mmHg 70%
    14:00 +27°C° 0.9 mm 1 mps 727 mmHg 71%
    15:00 +27°C° 0.9 mm 1 mps 727 mmHg 73%
    16:00 +26°C° 0.9 mm 1 mps 726 mmHg 74%
    17:00 +25°C° 0.3 mm 1 mps 726 mmHg 77%
    18:00 +23°C° 0.3 mm 1 mps 726 mmHg 80%
    19:00 +22°C° 0.3 mm 1 mps 726 mmHg 83%
    20:00 +21°C° 0.8 mm 1 mps 726 mmHg 85%
    21:00 +21°C° 0.8 mm 1 mps 726 mmHg 86%
    22:00 +20°C° 0.8 mm 1 mps 727 mmHg 88%
    23:00 +20°C° 0.6 mm 1 mps 727 mmHg 88%

    Tomorrow, 26 August, Monday

    Time Temperature Precipitation Wind Pressure Humidity
    00:00 +20°C° 0.6 mm 1 mps 727 mmHg 88%
    01:00 +19°C° 0.6 mm 1 mps 727 mmHg 89%
    02:00 +19°C° 0.1 mm 1 mps 727 mmHg 89%
    03:00 +19°C° 0.1 mm 1 mps 726 mmHg 89%
    04:00 +19°C° 0.1 mm 1 mps 726 mmHg 90%
    05:00 +20°C° 0.1 mm 1 mps 726 mmHg 89%
    06:00 +21°C° 0.1 mm 1 mps 727 mmHg 87%
    07:00 +19°C° 0.1 mm 0 mps 727 mmHg 86%
    08:00 +23°C° 0.1 mm 1 mps 727 mmHg 79%
    09:00 +25°C° 0.1 mm 1 mps 727 mmHg 71%
    10:00 +27°C° 0.1 mm 1 mps 727 mmHg 63%
    11:00 +28°C° 0.2 mm 1 mps 727 mmHg 60%
    12:00 +28°C° 0.2 mm 2 mps 727 mmHg 58%
    13:00 +29°C° 0.2 mm 2 mps 727 mmHg 55%
    14:00 +29°C° 0.5 mm 2 mps 726 mmHg 58%
    15:00 +28°C° 0.5 mm 2 mps 726 mmHg 61%
    16:00 +28°C° 0.5 mm 2 mps 725 mmHg 64%
    17:00 +26°C° 0.9 mm 1 mps 725 mmHg 71%
    18:00 +24°C° 0.9 mm 1 mps 725 mmHg 78%
    19:00 +21°C° 0.9 mm 0 mps 725 mmHg 85%
    20:00 +20°C° 0.6 mm 0 mps 725 mmHg 86%
    21:00 +22°C° 0.6 mm 1 mps 726 mmHg 88%
    22:00 +21°C° 0.6 mm 1 mps 726 mmHg 89%
    23:00 +21°C° 0 mm 1 mps 726 mmHg 89%

    Day after tomorrow, 27 August, Tuesday

    Time Temperature Precipitation Wind Pressure Humidity
    00:00 +21°C° 0 mm 1 mps 726 mmHg 90%
    01:00 +20°C° 0 mm 1 mps 726 mmHg 90%
    02:00 +20°C° 0 mm 1 mps 725 mmHg 90%
    03:00 +20°C° 0 mm 1 mps 725 mmHg 90%
    04:00 +19°C° 0 mm 1 mps 725 mmHg 90%
    05:00 +20°C° 0 mm 1 mps 726 mmHg 88%
    06:00 +21°C° 0 mm 1 mps 726 mmHg 86%
    07:00 +22°C° 0 mm 1 mps 726 mmHg 84%
    08:00 +24°C° 0 mm 1 mps 726 mmHg 75%
    09:00 +25°C° 0 mm 0 mps 727 mmHg 66%
    10:00 +27°C° 0 mm 0 mps 727 mmHg 57%
    11:00 +30°C° 0.1 mm 1 mps 727 mmHg 54%
    12:00 +30°C° 0.1 mm 1 mps 727 mmHg 52%
    13:00 +31°C° 0.1 mm 2 mps 727 mmHg 50%
    14:00 +30°C° 0.3 mm 2 mps 726 mmHg 52%
    15:00 +30°C° 0.3 mm 1 mps 726 mmHg 54%
    16:00 +29°C° 0.3 mm 1 mps 726 mmHg 57%
    17:00 +28°C° 0.4 mm 1 mps 726 mmHg 64%
    18:00 +26°C° 0.4 mm 1 mps 726 mmHg 71%
    19:00 +22°C° 0.4 mm 0 mps 726 mmHg 78%
    20:00 +21°C° 0.1 mm 0 mps 726 mmHg 80%
    21:00 +21°C° 0.1 mm 0 mps 726 mmHg 82%
    22:00 +22°C° 0.1 mm 1 mps 726 mmHg 83%
    23:00 +22°C° 0.1 mm 1 mps 726 mmHg 85%

    28 August, Wednesday

    Time Temperature Precipitation Wind Pressure Humidity
    00:00 +21°C° 0.1 mm 1 mps 726 mmHg 86%
    01:00 +21°C° 0.1 mm 1 mps 726 mmHg 87%
    02:00 +21°C° 0 mm 1 mps 726 mmHg 87%
    03:00 +20°C° 0 mm 1 mps 725 mmHg 88%
    04:00 +20°C° 0 mm 1 mps 725 mmHg 88%
    05:00 +21°C° 0 mm 1 mps 725 mmHg 86%
    06:00 +22°C° 0 mm 1 mps 725 mmHg 84%
    07:00 +23°C° 0 mm 1 mps 725 mmHg 83%
    08:00 +25°C° 0 mm 1 mps 726 mmHg 75%
    09:00 +27°C° 0 mm 1 mps 726 mmHg 67%
    10:00 +29°C° 0 mm 1 mps 726 mmHg 59%
    11:00 +30°C° 0.3 mm 1 mps 725 mmHg 58%
    12:00 +30°C° 0.3 mm 2 mps 725 mmHg 57%
    13:00 +30°C° 0.3 mm 2 mps 725 mmHg 56%
    14:00 +30°C° 0.6 mm 2 mps 724 mmHg 58%
    15:00 +30°C° 0.6 mm 2 mps 724 mmHg 60%
    16:00 +30°C° 0.6 mm 1 mps 724 mmHg 62%
    17:00 +28°C° 0.3 mm 1 mps 724 mmHg 67%
    18:00 +26°C° 0.3 mm 1 mps 723 mmHg 73%
    19:00 +24°C° 0.3 mm 1 mps 723 mmHg 78%
    20:00 +23°C° 0.5 mm 1 mps 723 mmHg 80%
    21:00 +23°C° 0.5 mm 1 mps 723 mmHg 82%
    22:00 +22°C° 0.5 mm 1 mps 724 mmHg 84%
    23:00 +22°C° 0.3 mm 1 mps 723 mmHg 85%

    29 August, Thursday

    Time Temperature Precipitation Wind Pressure Humidity
    00:00 +21°C° 0.3 mm 1 mps 723 mmHg 86%
    01:00 +21°C° 0.3 mm 1 mps 723 mmHg 87%
    02:00 +21°C° 0 mm 1 mps 723 mmHg 87%
    03:00 +20°C° 0 mm 1 mps 723 mmHg 88%
    04:00 +20°C° 0 mm 1 mps 723 mmHg 88%
    05:00 +21°C° 0 mm 1 mps 723 mmHg 87%
    06:00 +22°C° 0 mm 1 mps 723 mmHg 85%
    07:00 +23°C° 0 mm 1 mps 723 mmHg 84%
    08:00 +25°C° 0.1 mm 1 mps 724 mmHg 75%
    09:00 +27°C° 0.1 mm 1 mps 724 mmHg 66%
    10:00 +28°C° 0.1 mm 0 mps 724 mmHg 57%
    11:00 +30°C° 0.8 mm 1 mps 724 mmHg 57%
    12:00 +30°C° 0.8 mm 1 mps 724 mmHg 56%
    13:00 +30°C° 0.8 mm 1 mps 724 mmHg 56%
    14:00 +30°C° 0.5 mm 1 mps 724 mmHg 58%
    15:00 +29°C° 0.5 mm 1 mps 723 mmHg 60%
    16:00 +29°C° 0.5 mm 1 mps 723 mmHg 62%
    17:00 +27°C° 0.3 mm 1 mps 723 mmHg 66%
    18:00 +25°C° 0.3 mm 1 mps 724 mmHg 69%
    19:00 +24°C° 0.3 mm 1 mps 724 mmHg 73%
    20:00 +23°C° 0.2 mm 1 mps 724 mmHg 74%
    21:00 +23°C° 0.2 mm 1 mps 724 mmHg 75%
    22:00 +22°C° 0.2 mm 1 mps 725 mmHg 77%
    23:00 +22°C° 0 mm 1 mps 725 mmHg 77%

    30 August, Friday

    Time Temperature Precipitation Wind Pressure Humidity
    00:00 +20°C° 0 mm 2 mps 725 mmHg 78%
    01:00 +20°C° 0 mm 2 mps 725 mmHg 78%
    02:00 +21°C° 0 mm 1 mps 725 mmHg 79%
    03:00 +20°C° 0 mm 1 mps 725 mmHg 81%
    04:00 +20°C° 0 mm 1 mps 725 mmHg 82%
    05:00 +21°C° 0 mm 1 mps 726 mmHg 81%
    06:00 +21°C° 0 mm 1 mps 726 mmHg 80%
    07:00 +22°C° 0 mm 1 mps 726 mmHg 79%
    08:00 +24°C° 0.1 mm 1 mps 727 mmHg 74%
    09:00 +25°C° 0.1 mm 1 mps 727 mmHg 69%
    10:00 +27°C° 0.1 mm 1 mps 727 mmHg 63%
    11:00 +27°C° 0.4 mm 1 mps 727 mmHg 62%
    12:00 +28°C° 0.4 mm 1 mps 727 mmHg 61%
    13:00 +28°C° 0.4 mm 1 mps 727 mmHg 60%
    14:00 +28°C° 0.4 mm 1 mps 727 mmHg 62%
    15:00 +27°C° 0.4 mm 1 mps 726 mmHg 65%
    16:00 +27°C° 0.4 mm 1 mps 726 mmHg 68%
    17:00 +25°C° 0.2 mm 1 mps 726 mmHg 72%
    18:00 +24°C° 0.2 mm 1 mps 726 mmHg 76%
    19:00 +21°C° 0.2 mm 0 mps 726 mmHg 80%
    20:00 +20°C° 0.2 mm 0 mps 726 mmHg 82%
    21:00 +19°C° 0.2 mm 0 mps 726 mmHg 84%
    22:00 +21°C° 0.2 mm 1 mps 726 mmHg 86%
    23:00 +20°C° 0.1 mm 1 mps 726 mmHg 86%
    Show more